St. Petersburg Airport, FL

2:13 PM EST on December 18, 2017 (GMT -0500)
Saint Petersburg-Clearwater International

Weather History for KPIE - January, 2012

Change the Weather History Date:

Saturday, January 14, 2012

  Actual Average Record
Temperature  
Mean Temperature 50 °F -  
Max Temperature 57 °F 68 °F 82 °F (1989)
Min Temperature 43 °F 52 °F 32 °F (1973)
Degree Days  
Heating Degree Days 15    
Moisture  
Dew Point 31 °F    
Average Humidity 49    
Maximum Humidity 80    
Minimum Humidity 25    
Precipitation  
Precipitation 0.00 in - - ()
Sea Level Pressure  
Sea Level Pressure 30.34 in    
Wind  
Wind Speed 10 mph (North)    
Max Wind Speed 15 mph    
Max Gust Speed 20 mph    
Visibility 10 miles    
Events      
Averages and records for this station are not official NWS values.
T = Trace of Precipitation, MM = Missing Value Source: NWS Daily Summary

Daily Weather History Graph

Daily Weather History Graph

Search for Another Location

Airport or City:

Trip Planner

Search our weather history database for the weather conditions in past years. The results will help you decide how hot, cold, wet, or windy it might be!

Date:

Astronomy

Jan. 14, 2012 Rise Set
Actual Time 7:23 AM EST 5:56 PM EST
Civil Twilight 6:57 AM EST 6:21 PM EST
Nautical Twilight 6:29 AM EST 6:50 PM EST
Astronomical Twilight 6:00 AM EST 7:18 PM EST
Moon 11:37 PM EST (1/14) 10:42 AM EST (1/14)
Length of Visible Light 11h 23m
Length of Day
10h 33m
Waning Gibbous, 69% of the Moon is Illuminated
Jan 14
Waning Gibbous
Jan 16
Last Quarter
Jan 23
New
Jan 30
First Quarter
Feb 7
Full

Hourly Weather History & Observations

Time (EST) Temp. Windchill Dew Point Humidity Pressure Visibility Wind Dir Wind Speed Gust Speed Precip Events Conditions
12:53 AM 55.0 °F - 45.0 °F 69% 30.25 in 10.0 mi NW 8.1 mph - N/A   Clear
1:53 AM 55.0 °F - 45.0 °F 69% 30.25 in 10.0 mi NW 12.7 mph - N/A   Clear
2:53 AM 55.0 °F - 44.1 °F 67% 30.26 in 10.0 mi NNW 12.7 mph - N/A   Scattered Clouds
3:53 AM 54.0 °F - 42.1 °F 64% 30.27 in 10.0 mi NNW 15.0 mph - N/A   Clear
4:53 AM 51.1 °F - 39.0 °F 63% 30.29 in 10.0 mi North 13.8 mph - N/A   Clear
5:53 AM 48.0 °F - 36.0 °F 63% 30.30 in 10.0 mi NE 11.5 mph 19.6 mph N/A   Clear
6:53 AM 46.9 °F - 30.0 °F 52% 30.33 in 10.0 mi NNE 12.7 mph - N/A   Clear
7:53 AM 46.0 °F 39.9 °F 26.1 °F 46% 30.35 in 10.0 mi NNE 13.8 mph 19.6 mph N/A   Clear
8:53 AM 46.9 °F - 28.0 °F 48% 30.38 in 10.0 mi NNE 13.8 mph 18.4 mph N/A   Clear
9:53 AM 50.0 °F - 21.9 °F 33% 30.39 in 10.0 mi NNE 13.8 mph - N/A   Clear
10:53 AM 53.1 °F - 25.0 °F 34% 30.39 in 10.0 mi North 11.5 mph - N/A   Clear
11:53 AM 55.0 °F - 23.0 °F 29% 30.38 in 10.0 mi NNE 6.9 mph - N/A   Clear
12:53 PM 55.0 °F - 23.0 °F 29% 30.35 in 10.0 mi North 8.1 mph - N/A   Clear
1:53 PM 55.0 °F - 24.1 °F 30% 30.33 in 10.0 mi North 8.1 mph - N/A   Clear
2:53 PM 55.9 °F - 25.0 °F 30% 30.33 in 10.0 mi North 5.8 mph - N/A   Clear
3:53 PM 57.2 °F - 21.2 °F 25% 30.33 in 10.0 mi NNW 5.8 mph - N/A   Clear
4:53 PM 55.0 °F - 24.1 °F 30% 30.33 in 10.0 mi NNW 6.9 mph - N/A   Clear
5:53 PM 52.0 °F - 25.0 °F 35% 30.33 in 10.0 mi North 4.6 mph - N/A   Clear
6:53 PM 48.0 °F - 28.0 °F 46% 30.36 in 10.0 mi NNW 8.1 mph - N/A   Clear
7:53 PM 48.9 °F - 32.0 °F 52% 30.37 in 10.0 mi NNW 6.9 mph - N/A   Clear
8:53 PM 50.0 °F - 35.1 °F 57% 30.38 in 10.0 mi NNW 4.6 mph - N/A   Clear
9:53 PM 48.9 °F - 36.0 °F 61% 30.39 in 10.0 mi NNW 5.8 mph - N/A   Clear
10:53 PM 43.0 °F - 35.1 °F 74% 30.39 in 10.0 mi Calm Calm - N/A   Clear
11:53 PM 43.0 °F - 37.0 °F 80% 30.40 in 10.0 mi Calm Calm - N/A   Clear